User: anonymous   Login
Location: Star Hoppers Observatory
(42.7905°N, 83.6127°W)
Time: 13:32:36
(UTC-05:00)
Language:

NOSS 3-1 (A) - Orbit

View from above orbital plane
View from above orbital plane
View from above satellite
View from above satellite

Ground track
Ground track

The orbit data is extracted from the following two-line orbital elements,

1 26905U 01040A   14324.75000472 0.00000000  00000-0  00000-0 0    09
2 26905  63.4260 270.4775 0289000 357.6882   2.3117 13.40700325    04
Epoch (UTC): 20 November 2014 18:00:00
Eccentricity: 0.0289000
inclination: 63.4260°
perigee height: 890 km
apogee height: 1323 km
right ascension of ascending node: 270.4775°
argument of perigee: 357.6882°
revolutions per day: 13.40700325
mean anomaly at epoch: 2.3117°
orbit number at epoch: 0

The dashed part of the orbit path shows where the satellite is in the earth's shadow,  

DLR